Home   Weather   Kuching   Past weeks

Flag for Malaysia Past Weather in Kuching, Malaysia — Yesterday and Last 2 Weeks

Now
77 °F

Light rain. Broken clouds.


Feels Like: 78 °F
Forecast: 76 / 86 °F
Wind: 5 mph from West

Location: Kuching Airport

Current Time: Dec 10, 2016 at 6:53:15 pm

Latest Report: Dec 10, 2016 at 6:30 pm


Visibility: 2 mi

Pressure: 29.74 "Hg

Humidity: 89%

Dew Point: 73 °F

Location of KuchingLocation

Past Weather in Kuching — Graph

°F

Kuching Temperature Yesterday

Maximum temperature yesterday: 90 °F (at 2:00 pm)
Minimum temperature yesterday: 77 °F (at 12:30 am)
Average temperature yesterday: 80 °F

High & Low Weather Summary for the Past Weeks

 TemperatureHumidityPressure
High95 °F (Dec 8, 2:30 pm)100% (Nov 26, 2:30 am)29.89 "Hg (Nov 26, 2:30 am)
Low73 °F (Dec 4, 5:00 pm)53% (Dec 5, 2:00 pm)29.62 "Hg (Dec 8, 3:00 pm)
Average80 °F86%29.79 "Hg
* Reported Nov 25 5:00 pm — Dec 10 5:30 pm, Kuching, Weather by CustomWeather, © 2016

Note: Actual official high and low records may vary slightly from our data, if they occured in-between our weather recording intervals... More about our weather records

Advertising

Kuching Weather History for the Previous 24 Hours

Scroll right to see more
 ConditionsComfort  
Time TempWeatherWind HumidityBarometerVisibility
5:30 pm
Sat, Dec 10
77 °FLight rain. Broken clouds.9 mph89%29.74 "Hg2 mi
5:00 pm77 °FLight rain. Broken clouds.7 mph94%29.74 "Hg2 mi
4:30 pm77 °FLight rain. Broken clouds.7 mph89%29.71 "Hg2 mi
4:00 pm79 °FBroken clouds.8 mph84%29.71 "HgN/A
3:30 pm77 °FBroken clouds.9 mph89%29.71 "HgN/A
3:00 pm79 °FLight rain. Broken clouds.9 mph84%29.71 "HgN/A
2:30 pm77 °FThunderstorms. Broken clouds.6 mph94%29.74 "Hg4 mi
2:00 pm77 °FSprinkles. Broken clouds.10 mph94%29.74 "Hg3 mi
1:30 pm79 °FLots of rain. Broken clouds.17 mph89%29.74 "Hg1 mi
1:00 pm90 °FBroken clouds.7 mph67%29.74 "HgN/A
12:30 pm90 °FBroken clouds.8 mph67%29.74 "HgN/A
12:00 pm88 °FBroken clouds.3 mph70%29.77 "HgN/A
11:30 am88 °FBroken clouds.6 mph70%29.77 "HgN/A
11:00 am86 °FBroken clouds.3 mph75%29.80 "HgN/A
10:30 am84 °FBroken clouds.3 mph79%29.80 "HgN/A
10:00 am82 °FBroken clouds.3 mph79%29.80 "HgN/A
9:30 am82 °FPartly sunny.3 mph79%29.80 "HgN/A
9:00 am79 °FPartly sunny.2 mph89%29.80 "HgN/A
8:30 am79 °FPartly sunny.5 mph89%29.80 "HgN/A
8:00 am77 °FPartly sunny.3 mph89%29.77 "HgN/A
7:30 am75 °FPartly sunny.3 mph94%29.77 "HgN/A
7:00 am75 °FBroken clouds.3 mph94%29.77 "HgN/A
6:30 am75 °FBroken clouds.1 mph94%29.77 "HgN/A
6:00 am75 °FPartly cloudy.2 mph94%29.77 "HgN/A
5:30 am75 °FPartly cloudy.3 mph94%29.77 "HgN/A
5:00 am75 °FPartly cloudy.2 mph94%29.74 "HgN/A
4:30 am75 °FPartly cloudy.2 mph94%29.74 "HgN/A
4:00 am75 °FPartly cloudy.2 mph94%29.74 "HgN/A
3:30 am75 °FPartly cloudy.1 mph94%29.74 "HgN/A
3:00 am75 °FPartly cloudy.2 mph100%29.74 "HgN/A
2:30 am77 °FPartly cloudy.2 mph94%29.74 "HgN/A
2:00 am77 °FPartly cloudy.3 mph94%29.74 "HgN/A
1:30 am77 °FPartly cloudy.1 mph94%29.77 "HgN/A
1:00 am77 °FPartly cloudy.No wind94%29.77 "HgN/A
12:30 am79 °FLight rain. Partly cloudy.3 mph89%29.77 "HgN/A
12:00 am79 °FLight rain. Partly cloudy.6 mph89%29.77 "HgN/A
11:30 pm
Fri, Dec 9
79 °FLight rain. Partly cloudy.6 mph89%29.77 "HgN/A
11:00 pm79 °FLight rain. Partly cloudy.5 mph89%29.77 "HgN/A
10:30 pm79 °FPartly cloudy.3 mph89%29.77 "HgN/A
10:00 pm79 °FPartly cloudy.2 mph89%29.77 "HgN/A
9:30 pm79 °FPartly cloudy.5 mph89%29.77 "HgN/A
9:00 pm81 °FLight rain. Partly cloudy.7 mph84%29.77 "HgN/A
8:30 pm81 °FLight rain. Partly cloudy.7 mph84%29.77 "HgN/A
8:00 pm81 °FLight rain. Partly cloudy.7 mph84%29.74 "HgN/A
7:30 pm81 °FPartly cloudy.6 mph84%29.74 "HgN/A
7:00 pm81 °FPartly cloudy.8 mph84%29.71 "HgN/A
6:30 pm81 °FBroken clouds.6 mph89%29.71 "HgN/A
6:00 pm81 °FBroken clouds.7 mph89%29.71 "HgN/A
Weather by CustomWeather, © 2016

See weather overviewHow to use our weather pages